[Date Prev][Date Next][Thread Prev][Thread Next] - [Date Index][Thread Index][Author Index]

2 Line ISS Keps 11-30



ISS
1 25544U 98067A   04335.18703704  .00033469  00000-0  26662-3 0  2550
2 25544  51.6373 198.5510 0003995  65.9767  75.3138 15.70847263344395
----
Via the sarex mailing list at AMSAT.ORG courtesy of AMSAT-NA.
To unsubscribe, send "unsubscribe sarex" to Majordomo@amsat.org



AMSAT Top AMSAT Home